KD5UIG Weather Reports


Display with metric or nautical units.
time (UTC)temp
F
wind
direction
speed
MPH
gust
MPH
rain 1hr
in
rain 24hr
in
rain mn
in
humidity
%
barometer
mb
20260509012554 73 174 1.0 7.0 0.00 0.15 0.15 75 1008.1
20260509012054 74 181 1.0 7.0 0.00 0.15 0.15 74 1008.2
20260509011558 74 180 2.0 7.0 0.00 0.15 0.15 74 1008.3
20260509011055 74 206 1.0 7.0 0.00 0.15 0.15 73 1008.4
20260509010554 74 0 0.0 7.0 0.00 0.15 0.15 73 1008.6
20260509010054 75 0 1.0 6.0 0.00 0.15 0.15 73 1008.7
20260509005554 75 192 0.0 6.0 0.00 0.15 0.15 72 1008.8
20260509005054 75 187 0.0 5.0 0.00 0.15 0.15 72 1008.8
20260509004600 75 0 1.0 5.0 0.00 0.15 0.15 71 1008.7
20260509004057 75 190 1.0 5.0 0.00 0.15 0.15 71 1008.7
20260509003555 76 0 1.0 10.0 0.00 0.15 0.15 71 1008.5
20260509003059 76 199 2.0 10.0 0.00 0.15 0.15 70 1008.3
20260509002554 76 194 2.0 9.0 0.00 0.15 0.15 70 1008.3
20260509002054 77 194 1.0 10.0 0.00 0.15 0.15 70 1008.3
20260509001600 77 216 2.0 10.0 0.00 0.15 0.15 69 1008.2
20260509001054 77 175 2.0 10.0 0.00 0.15 0.15 69 1008.2
20260509000554 77 186 3.0 9.0 0.00 0.15 0.15 69 1008.1
20260509000107 77 171 2.0 9.0 0.00 0.15 0.15 68 1008.1
20260508235554 77 136 2.0 9.0 0.00 0.15 0.15 68 1008.0
20260508235054 78 211 1.0 7.0 0.00 0.15 0.15 67 1008.1
20260508234557 78 182 1.0 7.0 0.00 0.15 0.15 66 1008.1
20260508234100 78 197 2.0 8.0 0.00 0.15 0.15 66 1008.2
20260508233555 78 175 2.0 8.0 0.00 0.15 0.15 65 1008.2
20260508233054 79 168 2.0 10.0 0.00 0.15 0.15 65 1008.3
20260508232556 79 173 1.0 11.0 0.00 0.15 0.15 64 1008.3
20260508232054 79 195 3.0 11.0 0.00 0.15 0.15 64 1008.3
20260508231559 79 193 2.0 9.0 0.00 0.15 0.15 64 1008.3
20260508231055 79 209 1.0 8.0 0.00 0.15 0.15 64 1008.3
20260508230559 79 171 1.0 9.0 0.00 0.15 0.15 64 1008.4
20260508230058 79 200 3.0 9.0 0.00 0.15 0.15 63 1008.3
20260508225555 79 230 2.0 9.0 0.00 0.15 0.15 63 1008.3
20260508225058 80 80 2.0 10.0 0.00 0.15 0.15 63 1008.3
20260508224635 80 205 3.0 10.0 0.00 0.15 0.15 63 1008.4
20260508224055 80 223 2.0 11.0 0.00 0.15 0.15 63 1008.3
20260508223555 80 181 2.0 11.0 0.00 0.15 0.15 64 1008.3
20260508223055 80 200 2.0 10.0 0.00 0.15 0.15 64 1008.3
20260508222558 80 33 1.0 10.0 0.00 0.15 0.15 64 1008.5
20260508222055 80 172 2.0 10.0 0.00 0.15 0.15 65 1008.5
20260508221555 80 182 4.0 10.0 0.00 0.15 0.15 63 1008.5
20260508221054 80 152 3.0 11.0 0.00 0.15 0.15 62 1008.6
20260508220554 81 199 4.0 11.0 0.00 0.15 0.15 62 1008.7
20260508220058 81 216 2.0 8.0 0.00 0.15 0.15 63 1008.6
20260508215554 81 157 1.0 8.0 0.00 0.15 0.15 62 1008.6
20260508215054 81 209 1.0 8.0 0.00 0.15 0.15 62 1008.6
20260508214559 81 182 2.0 8.0 0.00 0.15 0.15 62 1008.7
20260508214055 81 111 2.0 8.0 0.00 0.15 0.15 62 1008.7
20260508213554 82 205 2.0 11.0 0.00 0.15 0.15 61 1008.7
20260508213100 82 178 2.0 11.0 0.00 0.15 0.15 62 1008.8
20260508212554 82 205 3.0 10.0 0.00 0.15 0.15 60 1008.8
20260508212053 82 157 1.0 5.0 0.00 0.15 0.15 61 1008.9
20260508211602 81 188 1.0 6.0 0.00 0.15 0.15 62 1008.8
20260508211054 81 0 1.0 7.0 0.00 0.15 0.15 62 1008.8
20260508210554 81 152 1.0 7.0 0.00 0.15 0.15 61 1008.7
20260508210056 81 175 2.0 9.0 0.00 0.15 0.15 62 1008.7
20260508205558 81 335 1.0 11.0 0.00 0.15 0.15 61 1008.8
20260508205056 81 194 2.0 11.0 0.00 0.15 0.15 61 1009.0
20260508204557 81 151 2.0 12.0 0.00 0.15 0.15 60 1009.1
20260508204055 80 220 2.0 15.0 0.00 0.15 0.15 63 1009.3
20260508203554 79 184 6.0 15.0 0.00 0.15 0.15 61 1009.5
20260508203107 79 204 3.0 11.0 0.00 0.15 0.15 62 1009.6
20260508202557 79 76 4.0 12.0 0.00 0.15 0.15 63 1009.8
20260508202057 79 177 2.0 12.0 0.00 0.15 0.15 62 1009.9
20260508201604 80 187 4.0 11.0 0.00 0.15 0.15 61 1010.1
20260508201057 80 207 3.0 11.0 0.00 0.15 0.15 62 1010.1
20260508200555 81 204 3.0 10.0 0.00 0.15 0.15 59 1010.3
20260508200055 83 134 3.0 10.0 0.00 0.15 0.15 60 1010.3
20260508195600 83 186 2.0 11.0 0.00 0.15 0.15 58 1010.4
20260508195100 83 203 3.0 11.0 0.00 0.15 0.15 57 1010.3
20260508194559 83 213 2.0 13.0 0.00 0.15 0.15 59 1010.4
20260508194056 82 169 4.0 13.0 0.00 0.15 0.15 60 1010.4
20260508193559 81 227 2.0 6.0 0.00 0.15 0.15 64 1010.5
20260508193057 79 207 2.0 8.0 0.00 0.15 0.15 64 1010.6
20260508192554 79 168 3.0 8.0 0.00 0.15 0.15 62 1010.7
20260508192055 79 167 2.0 8.0 0.00 0.15 0.15 62 1010.7
20260508191557 79 223 3.0 10.0 0.00 0.15 0.15 62 1010.6
20260508191058 80 180 1.0 10.0 0.00 0.15 0.15 60 1010.6
20260508190554 82 217 2.0 8.0 0.00 0.15 0.15 59 1010.6
20260508190056 82 0 1.0 7.0 0.00 0.15 0.15 61 1010.6
20260508185554 82 134 3.0 7.0 0.00 0.15 0.15 59 1010.7
20260508185054 82 171 1.0 6.0 0.00 0.15 0.15 61 1010.8
20260508184556 81 191 1.0 9.0 0.00 0.15 0.15 62 1011.0
20260508184054 80 32 2.0 9.0 0.00 0.15 0.15 61 1011.1
20260508183554 80 205 2.0 7.0 0.00 0.15 0.15 63 1011.1
20260508183056 80 67 1.0 6.0 0.00 0.15 0.15 62 1011.1
20260508182553 81 167 1.0 7.0 0.00 0.15 0.15 60 1011.2
20260508182055 80 0 1.0 7.0 0.00 0.15 0.15 62 1011.2
20260508181558 81 182 1.0 7.0 0.00 0.15 0.15 61 1011.4
20260508181055 80 199 1.0 7.0 0.00 0.15 0.15 62 1011.5
20260508180555 79 190 1.0 8.0 0.00 0.15 0.15 64 1011.6
20260508180057 79 0 0.0 8.0 0.00 0.15 0.15 65 1011.7
20260508175554 79 82 1.0 4.0 0.00 0.15 0.15 66 1011.9
20260508175054 79 74 1.0 6.0 0.00 0.15 0.15 64 1011.9
20260508174559 80 275 1.0 6.0 0.00 0.15 0.15 65 1012.1
20260508174056 79 101 1.0 6.0 0.00 0.15 0.15 64 1012.2
20260508173554 78 161 1.0 7.0 0.00 0.15 0.15 64 1012.2
20260508173055 78 223 1.0 8.0 0.00 0.15 0.15 63 1012.3
20260508172554 78 207 2.0 8.0 0.00 0.15 0.15 65 1012.3
20260508172054 77 192 1.0 5.0 0.00 0.15 0.15 64 1012.4
20260508171553 77 200 1.0 6.0 0.00 0.15 0.15 62 1012.4
20260508171053 76 130 1.0 6.0 0.00 0.15 0.15 63 1012.5
20260508170553 76 188 1.0 4.0 0.00 0.15 0.15 65 1012.7
20260508170054 76 215 1.0 4.0 0.00 0.15 0.15 64 1012.7
20260508165555 75 238 1.0 6.0 0.00 0.15 0.15 67 1012.8
20260508165054 74 190 1.0 6.0 0.00 0.15 0.15 68 1013.0
20260508164555 73 164 1.0 6.0 0.00 0.15 0.15 68 1013.0
20260508164054 72 0 1.0 7.0 0.00 0.15 0.15 66 1013.0
20260508163554 73 157 2.0 7.0 0.00 0.15 0.15 64 1013.2
20260508163053 75 194 2.0 11.0 0.00 0.15 0.15 65 1013.4
20260508162554 74 213 2.0 12.0 0.00 0.15 0.15 67 1013.4
20260508162054 73 214 4.0 12.0 0.00 0.15 0.15 65 1013.5
20260508161557 73 217 1.0 8.0 0.00 0.15 0.15 66 1013.4
20260508161056 73 137 2.0 8.0 0.00 0.15 0.15 68 1013.4
20260508160555 72 200 1.0 8.0 0.00 0.15 0.15 67 1013.4
20260508160054 73 202 1.0 7.0 0.00 0.15 0.15 68 1013.5
20260508155555 71 175 2.0 10.0 0.00 0.15 0.15 68 1013.6
20260508155056 71 126 2.0 10.0 0.00 0.15 0.15 67 1013.7
20260508154609 72 183 2.0 8.0 0.00 0.15 0.15 68 1013.8
20260508154054 71 193 1.0 7.0 0.00 0.15 0.15 68 1013.8
20260508153554 71 119 1.0 7.0 0.00 0.15 0.15 70 1014.0
20260508153054 70 184 2.0 7.0 0.00 0.15 0.15 70 1013.9
20260508152554 70 163 0.0 5.0 0.00 0.15 0.15 71 1014.0
20260508152054 70 0 1.0 6.0 0.00 0.15 0.15 71 1014.1
20260508151555 70 203 2.0 6.0 0.00 0.15 0.15 74 1014.2
20260508151054 69 198 2.0 7.0 0.00 0.15 0.15 75 1014.2
20260508150555 69 0 1.0 7.0 0.00 0.15 0.15 74 1014.0
20260508150108 69 210 1.0 8.0 0.00 0.15 0.15 75 1014.3
20260508145554 69 191 1.0 8.0 0.00 0.15 0.15 73 1014.3
20260508145053 70 197 3.0 7.0 0.00 0.15 0.15 73 1014.6
20260508144553 70 169 1.0 4.0 0.00 0.15 0.15 77 1014.3
20260508144055 69 92 1.0 4.0 0.00 0.15 0.15 77 1014.4
20260508143555 68 192 1.0 6.0 0.00 0.15 0.15 81 1014.4
20260508143135 66 215 1.0 6.0 0.00 0.15 0.15 83 1014.2
20260508142554 65 202 1.0 5.0 0.00 0.15 0.15 85 1014.3
20260508142054 65 196 0.0 5.0 0.00 0.15 0.15 86 1014.2
20260508141607 65 0 0.0 5.0 0.00 0.15 0.15 88 1014.5
20260508141055 64 0 0.0 5.0 0.00 0.15 0.15 90 1014.4
20260508140554 63 0 1.0 5.0 0.00 0.15 0.15 89 1014.7
20260508140106 63 194 0.0 4.0 0.00 0.15 0.15 89 1014.7
20260508135554 63 0 0.0 4.0 0.00 0.15 0.15 89 1014.5
20260508135055 63 195 0.0 3.0 0.00 0.15 0.15 90 1014.8
20260508134557 63 0 0.0 2.0 0.00 0.15 0.15 90 1014.6
20260508134055 62 0 0.0 2.0 0.00 0.15 0.15 90 1014.7
20260508133557 62 0 0.0 2.0 0.00 0.15 0.15 90 1014.5
20260508133108 62 0 0.0 2.0 0.00 0.15 0.15 90 1014.5
20260508132554 62 0 0.0 2.0 0.00 0.15 0.15 90 1014.6
20260508132055 61 0 0.0 3.0 0.00 0.15 0.15 90 1014.6
20260508131601 61 0 0.0 7.0 0.00 0.15 0.15 89 1014.5
20260508131055 61 197 1.0 7.0 0.00 0.15 0.15 90 1014.5
20260508130554 61 0 1.0 4.0 0.00 0.15 0.15 90 1014.5
20260508125554 60 0 0.0 2.0 0.00 0.15 0.15 89 1014.4
20260508125055 60 0 0.0 2.0 0.00 0.15 0.15 89 1014.4
20260508124558 60 0 0.0 1.0 0.00 0.15 0.15 89 1014.3
20260508124054 60 0 0.0 2.0 0.00 0.15 0.15 89 1014.4
20260508123554 60 0 0.0 3.0 0.00 0.15 0.15 88 1014.4
20260508123056 60 0 0.0 3.0 0.00 0.15 0.15 88 1014.3
20260508122553 60 186 0.0 4.0 0.00 0.15 0.15 88 1014.3
20260508122054 60 0 0.0 4.0 0.00 0.15 0.15 88 1014.3
20260508121602 60 0 0.0 6.0 0.00 0.15 0.15 88 1014.4
20260508121054 60 0 0.0 6.0 0.00 0.15 0.15 88 1014.3
20260508120555 60 150 1.0 4.0 0.02 0.15 0.15 87 1014.3
20260508120055 60 187 1.0 4.0 0.10 0.15 0.15 87 1014.4
20260508115557 60 179 0.0 3.0 0.15 0.15 0.15 87 1014.6
20260508115054 60 0 0.0 2.0 0.15 0.15 0.15 87 1014.6
20260508114552 60 0 0.0 2.0 0.15 0.15 0.15 86 1014.6
20260508114055 60 0 0.0 0.0 0.15 0.15 0.15 86 1014.5
20260508113555 60 0 0.0 3.0 0.15 0.15 0.15 86 1014.5
20260508113055 60 0 0.0 3.0 0.15 0.15 0.15 86 1014.4
20260508112554 60 0 0.0 2.0 0.15 0.15 0.15 86 1014.2
20260508112054 60 0 0.0 4.0 0.15 0.15 0.15 86 1014.5
20260508111603 60 0 0.0 6.0 0.15 0.15 0.15 85 1014.4
20260508111055 60 202 1.0 7.0 0.15 0.15 0.15 85 1014.0
20260508110555 61 149 0.0 9.0 0.12 0.12 0.12 85 1013.8
20260508110057 61 179 3.0 9.0 0.05 0.05 0.05 84 1014.3
20260508105555 61 180 2.0 6.0 0.00 0.00 0.00 84 1014.0
20260508105054 61 212 0.0 3.0 0.00 0.00 0.00 84 1013.8
20260508104600 61 221 0.0 2.0 0.00 0.00 0.00 83 1013.6
20260508104055 61 0 0.0 4.0 0.00 0.00 0.00 83 1013.6
20260508103554 61 0 0.0 5.0 0.00 0.00 0.00 83 1013.8
20260508103102 61 224 1.0 6.0 0.00 0.00 0.00 83 1014.0
20260508102554 61 200 1.0 6.0 0.00 0.00 0.00 83 1014.0
20260508102056 61 188 0.0 3.0 0.00 0.00 0.00 83 1013.9
20260508101555 61 0 0.0 1.0 0.00 0.00 0.00 82 1013.9
20260508101055 61 0 0.0 3.0 0.00 0.00 0.00 82 1013.6
20260508100554 61 0 0.0 3.0 0.00 0.00 0.00 82 1013.8
20260508100055 61 184 0.0 1.0 0.00 0.00 0.00 82 1014.3
20260508095555 61 0 0.0 0.0 0.00 0.00 0.00 81 1014.3
20260508095054 61 0 0.0 0.0 0.00 0.00 0.00 81 1014.0
20260508094554 61 0 0.0 0.0 0.00 0.00 0.00 81 1013.7
20260508094055 61 0 0.0 0.0 0.00 0.00 0.00 81 1013.8
20260508093557 61 0 0.0 0.0 0.00 0.00 0.00 81 1013.7
20260508093054 61 0 0.0 2.0 0.00 0.00 0.00 81 1013.8
20260508092555 61 0 0.0 2.0 0.00 0.00 0.00 81 1013.6
20260508092054 61 0 0.0 2.0 0.00 0.00 0.00 81 1013.6
20260508091608 61 0 0.0 3.0 0.00 0.00 0.00 81 1013.4
20260508091054 61 0 0.0 3.0 0.00 0.00 0.00 80 1013.6
20260508090555 61 0 0.0 3.0 0.00 0.00 0.00 80 1013.8
20260508090056 61 0 0.0 3.0 0.00 0.00 0.00 80 1013.7
20260508085554 61 0 0.0 2.0 0.00 0.00 0.00 80 1013.6
20260508085054 61 185 0.0 2.0 0.00 0.00 0.00 79 1013.7
20260508084613 60 0 0.0 3.0 0.00 0.00 0.00 79 1013.8
20260508084055 61 0 0.0 3.0 0.00 0.00 0.00 79 1013.9
20260508083554 60 186 0.0 2.0 0.00 0.00 0.00 79 1014.2
20260508083107 60 0 0.0 1.0 0.00 0.00 0.00 78 1014.0
20260508082554 60 0 0.0 3.0 0.00 0.00 0.00 78 1014.0
20260508082055 60 0 0.0 3.0 0.00 0.00 0.00 78 1014.1
20260508081558 60 0 0.0 3.0 0.00 0.00 0.00 78 1014.3
20260508081054 60 0 0.0 1.0 0.00 0.00 0.00 78 1014.1
20260508080555 60 0 0.0 1.0 0.00 0.00 0.00 78 1014.1
20260508080109 60 0 0.0 1.0 0.00 0.00 0.00 78 1014.3
20260508075554 60 0 0.0 1.0 0.00 0.00 0.00 78 1014.5
20260508075054 60 0 0.0 1.0 0.00 0.00 0.00 78 1014.8
20260508074603 60 0 0.0 1.0 0.00 0.00 0.00 77 1014.4
20260508074055 60 0 0.0 0.0 0.00 0.00 0.00 77 1014.5
20260508073559 60 0 0.0 2.0 0.00 0.00 0.00 77 1014.8
20260508073101 60 0 0.0 4.0 0.00 0.00 0.00 78 1014.5
20260508072558 60 190 0.0 5.0 0.00 0.00 0.00 78 1015.1
20260508072055 60 202 1.0 5.0 0.00 0.00 0.00 78 1015.3
20260508071554 60 190 1.0 4.0 0.00 0.00 0.00 78 1015.6
20260508071055 60 190 0.0 3.0 0.00 0.00 0.00 77 1015.7
20260508070555 60 190 0.0 3.0 0.00 0.00 0.00 77 1015.2
20260508070056 60 0 0.0 0.0 0.00 0.00 0.00 76 1015.3
20260508065554 60 0 0.0 0.0 0.00 0.00 0.00 76 1015.1
20260508065058 60 0 0.0 0.0 0.00 0.00 0.00 76 1015.3
20260508064602 60 0 0.0 0.0 0.00 0.00 0.00 75 1015.4
20260508064054 60 0 0.0 0.0 0.00 0.00 0.00 75 1015.4
20260508063555 60 0 0.0 0.0 0.00 0.00 0.00 75 1015.4
20260508063056 60 0 0.0 0.0 0.00 0.00 0.00 75 1015.5
20260508062554 60 0 0.0 0.0 0.00 0.00 0.00 75 1015.5
20260508062057 60 0 0.0 0.0 0.00 0.00 0.00 74 1015.4
20260508061557 60 0 0.0 0.0 0.00 0.00 0.00 74 1015.5
20260508061054 61 0 0.0 0.0 0.00 0.00 0.00 74 1015.5
20260508060553 61 0 0.0 0.0 0.00 0.00 0.00 74 1015.7
20260508060059 61 0 0.0 0.0 0.00 0.00 0.00 73 1015.7
20260508055556 61 0 0.0 0.0 0.00 0.00 0.00 73 1015.7
20260508055054 61 0 0.0 0.0 0.00 0.00 0.00 73 1015.6
20260508054559 61 0 0.0 0.0 0.00 0.00 0.00 73 1015.7
20260508054054 61 0 0.0 0.0 0.00 0.00 0.00 72 1015.6
20260508053555 61 0 0.0 0.0 0.00 0.00 0.00 72 1015.7
20260508053101 61 0 0.0 0.0 0.00 0.00 0.00 72 1015.6
20260508052557 61 0 0.0 0.0 0.00 0.00 0.00 72 1015.6
20260508052053 61 0 0.0 0.0 0.00 0.00 0.00 72 1015.6
20260508051610 61 0 0.0 0.0 0.00 0.00 0.00 72 1015.6
20260508051057 61 0 0.0 0.0 0.00 0.00 0.00 72 1015.5
20260508050554 61 0 0.0 0.0 0.00 0.00 0.00 72 1015.5
20260508050111 61 0 0.0 2.0 0.00 0.00 0.00 72 1015.5
20260508045555 61 0 0.0 2.0 0.00 0.00 0.00 72 1015.4
20260508045054 61 0 0.0 3.0 0.00 0.00 0.00 72 1015.7
20260508044557 61 0 0.0 3.0 0.00 0.00 0.00 72 1015.7
20260508044055 61 190 0.0 3.0 0.00 0.00 0.00 72 1015.8
20260508043553 61 0 0.0 1.0 0.00 0.00 0.00 72 1015.8
20260508043056 61 0 0.0 1.0 0.00 0.00 0.00 72 1015.7
20260508042554 61 0 0.0 1.0 0.00 0.00 0.00 71 1015.6
20260508042053 61 0 0.0 1.0 0.00 0.00 0.00 71 1015.6
20260508041558 62 0 0.0 1.0 0.00 0.00 0.00 71 1015.5
20260508041054 61 0 0.0 1.0 0.00 0.00 0.00 71 1015.5
20260508040555 62 0 0.0 1.0 0.00 0.00 0.00 71 1015.5
20260508035554 62 0 0.0 2.0 0.00 0.00 0.00 71 1015.6
20260508035055 62 0 0.0 2.0 0.00 0.00 0.00 70 1015.5
20260508034558 62 0 0.0 1.0 0.00 0.00 0.00 70 1015.4
20260508034055 62 0 0.0 1.0 0.00 0.00 0.00 70 1015.4
20260508033559 62 190 0.0 1.0 0.00 0.00 0.00 70 1015.4
20260508033059 62 0 0.0 1.0 0.00 0.00 0.00 69 1015.6
20260508032555 63 0 0.0 1.0 0.00 0.00 0.00 69 1015.5
20260508032055 63 0 0.0 1.0 0.00 0.00 0.00 69 1015.3
20260508031555 63 0 0.0 1.0 0.00 0.00 0.00 69 1015.4
20260508031055 63 0 0.0 1.0 0.00 0.00 0.00 69 1015.3
20260508030555 63 0 0.0 1.0 0.00 0.00 0.00 68 1015.4
20260508030057 63 0 0.0 1.0 0.00 0.00 0.00 68 1015.2
20260508025554 64 0 0.0 1.0 0.00 0.00 0.00 68 1015.1
20260508025054 64 0 0.0 1.0 0.00 0.00 0.00 68 1015.0
20260508024555 64 0 0.0 1.0 0.00 0.00 0.00 68 1015.0
20260508024055 64 0 0.0 1.0 0.00 0.00 0.00 68 1014.9
20260508023556 64 0 0.0 1.0 0.00 0.00 0.00 67 1014.8
20260508023059 65 0 0.0 0.0 0.00 0.00 0.00 67 1014.8
20260508022555 65 0 0.0 0.0 0.00 0.00 0.00 66 1014.8
20260508022055 65 0 0.0 1.0 0.00 0.00 0.00 66 1014.7
20260508021555 65 0 0.0 3.0 0.00 0.00 0.00 66 1014.7
20260508021055 66 0 0.0 3.0 0.00 0.00 0.00 65 1014.7
20260508020555 66 0 0.0 3.0 0.00 0.00 0.00 65 1014.7
20260508020100 66 0 0.0 2.0 0.00 0.00 0.00 65 1014.6
20260508015555 67 360 0.0 3.0 0.00 0.00 0.00 64 1014.6
20260508015056 67 360 0.0 3.0 0.00 0.00 0.00 64 1014.5
20260508014557 68 0 0.0 2.0 0.00 0.00 0.00 63 1014.6
20260508014055 68 0 0.0 2.0 0.00 0.00 0.00 62 1014.6
20260508013557 69 0 0.0 3.0 0.00 0.00 0.00 61 1014.5
20260508013051 69 0 0.0 3.0 0.00 0.00 0.00 60 1014.6